Location: Peebles
(55.6412°N, 3.1714°W)
Time: 15:17:10
(UTC+01:00)

IRS-1A Rocket - Pass Details

Date: 26 September 2021
Orbit: 852 x 930 km, 99.2° (Epoch: 17 October)

Event Time Altitude Azimuth Distance (km) Brightness Sun altitude
Exits shadow 20:59:36 18° 153° (SSE) 2,089 5.8 -17.2°
Maximum altitude 21:04:03 79° 69° (ENE) 954 4.3 -17.8°
Drops below altitude 10° 21:10:00 10° 344° (NNW) 2,651 7.3 -18.5°
Sets 21:12:26 0° 344° (NNW) 3,598 8.1 -18.8°
